EW9560 Weather Reports


Display with metric or nautical units.
time (UTC)temp
F
wind
direction
speed
MPH
gust
MPH
rain 1hr
in
rain 24hr
in
rain mn
in
humidity
%
barometer
mb
20260904080033 50 180 0.0 2.0 0.00 0.01 0.00 94 1012.7
20260904074536 51 168 1.0 3.0 0.00 0.01 0.00 94 1012.7
20260904073036 51 225 0.0 1.0 0.00 0.01 0.00 94 1012.7
20260904070033 51 225 0.0 1.0 0.00 0.01 0.00 93 1012.5
20260904064535 52 229 0.0 1.0 0.00 0.01 0.01 93 1012.5
20260904063036 52 241 0.0 2.0 0.00 0.01 0.01 92 1012.5
20260904060031 53 188 1.0 3.0 0.00 0.01 0.01 90 1012.4
20260904054537 53 180 0.0 1.0 0.00 0.01 0.01 89 1012.4
20260904053109 53 180 0.0 1.0 0.00 0.01 0.01 88 1012.3
20260904051533 54 259 0.0 1.0 0.00 0.01 0.01 88 1012.4
20260904050034 54 259 2.0 4.0 0.00 0.01 0.01 88 1012.5
20260904044534 54 200 3.0 6.0 0.00 0.01 0.01 87 1012.5
20260904043108 55 174 2.0 4.0 0.00 0.01 0.01 84 1012.5
20260904040034 56 247 0.0 1.0 0.00 0.01 0.01 81 1012.6
20260904034536 56 249 1.0 4.0 0.00 0.01 0.01 80 1012.5
20260904033034 56 279 1.0 5.0 0.00 0.01 0.01 80 1012.3
20260904031535 57 287 1.0 6.0 0.00 0.01 0.01 80 1012.2
20260904024535 58 207 1.0 5.0 0.00 0.01 0.01 78 1012.1
20260904023141 58 315 0.0 2.0 0.00 0.04 0.01 77 1011.9
20260904021611 58 101 0.0 3.0 0.00 0.07 0.01 75 1011.9
20260904020034 59 9 0.0 2.0 0.00 0.14 0.01 74 1011.8
20260904014529 59 304 2.0 7.0 0.00 0.22 0.01 73 1011.8
20260904013033 60 280 4.0 9.0 0.00 0.22 0.01 71 1011.7
20260904010035 63 301 2.0 5.0 0.00 0.22 0.01 65 1011.6
20260904004534 63 9 1.0 5.0 0.00 0.23 0.01 67 1011.6
20260904003031 62 96 2.0 5.0 0.00 0.24 0.01 70 1011.6
20260904001534 61 93 3.0 6.0 0.00 0.25 0.01 74 1011.7
20260904000037 60 79 2.0 6.0 0.00 0.26 0.01 75 1011.8
20260903233032 60 307 4.0 11.0 0.00 0.27 0.01 70 1011.8
20260903231533 61 298 6.0 17.0 0.00 0.28 0.01 68 1011.8
20260903230029 61 304 5.0 12.0 0.00 0.28 0.01 67 1012.0
20260903224611 61 292 8.0 21.0 0.00 0.28 0.01 67 1011.9
20260903221535 61 291 11.0 21.0 0.00 0.28 0.01 67 1011.7
20260903220034 63 288 11.0 23.0 0.00 0.30 0.01 62 1011.6
20260903214530 68 289 11.0 23.0 0.00 0.31 0.01 54 1011.5
20260903213035 67 275 2.0 13.0 0.00 0.32 0.01 51 1011.5
20260903210036 68 298 3.0 7.0 0.00 0.34 0.01 51 1011.6
20260903204535 66 320 2.0 5.0 0.00 0.35 0.01 55 1011.6
20260903203036 66 306 3.0 7.0 0.00 0.36 0.01 57 1011.8
20260903200031 65 24 3.0 6.0 0.00 0.37 0.01 58 1012.2
20260903194532 65 61 3.0 7.0 0.00 0.38 0.01 61 1012.3
20260903193036 63 359 2.0 6.0 0.00 0.38 0.01 65 1012.6
20260903191536 61 355 1.0 4.0 0.00 0.38 0.01 75 1013.0
20260903183031 60 108 0.0 5.0 0.00 0.38 0.01 83 1013.2
20260903181532 58 31 1.0 4.0 0.00 0.38 0.01 87 1013.3
20260903180111 56 3 1.0 4.0 0.00 0.38 0.01 91 1013.3
20260903174534 56 349 1.0 3.0 0.00 0.38 0.01 94 1013.4
20260903173035 54 294 0.0 2.0 0.00 0.38 0.01 96 1013.4
20260903171536 53 103 0.0 4.0 0.00 0.38 0.01 97 1013.4
20260903170032 52 186 2.0 4.0 0.00 0.38 0.01 97 1013.5
20260903163034 51 149 1.0 5.0 0.00 0.38 0.01 98 1013.2
20260903161536 51 99 1.0 5.0 0.00 0.38 0.01 98 1013.4
20260903160043 50 232 2.0 6.0 0.00 0.38 0.01 98 1013.5
20260903154535 50 242 2.0 5.0 0.00 0.38 0.01 98 1013.3
20260903153110 49 191 2.0 4.0 0.00 0.38 0.01 98 1013.4
20260903150036 49 180 0.0 2.0 0.00 0.38 0.01 98 1013.2
20260903144534 48 182 1.0 3.0 0.00 0.38 0.01 98 1013.1
20260903143031 48 201 2.0 4.0 0.00 0.38 0.01 98 1013.0
20260903141533 48 162 2.0 4.0 0.01 0.38 0.01 98 1012.9
20260903140110 48 183 2.0 4.0 0.01 0.38 0.01 98 1012.8
20260903134535 47 188 3.0 6.0 0.01 0.38 0.01 98 1012.8
20260903133032 47 145 1.0 4.0 0.01 0.38 0.00 98 1012.6
20260903131535 47 183 1.0 4.0 0.00 0.37 0.00 98 1012.5
20260903130035 47 140 2.0 4.0 0.00 0.37 0.00 98 1012.4
20260903124541 47 179 0.0 3.0 0.00 0.37 0.00 98 1012.5
20260903123034 48 175 1.0 4.0 0.00 0.37 0.00 98 1012.6
20260903121535 48 149 1.0 3.0 0.00 0.37 0.00 98 1012.6
20260903120032 49 168 2.0 4.0 0.00 0.37 0.00 97 1012.6
20260903114532 49 190 2.0 4.0 0.00 0.37 0.00 97 1012.5
20260903113035 49 180 3.0 5.0 0.00 0.37 0.00 97 1012.5
20260903111610 50 175 1.0 5.0 0.00 0.37 0.00 97 1012.4
20260903110035 50 223 3.0 6.0 0.00 0.37 0.00 97 1012.3
20260903104610 50 200 2.0 5.0 0.00 0.37 0.00 97 1012.2
20260903103031 51 162 1.0 3.0 0.00 0.37 0.00 97 1012.0
20260903101542 51 157 0.0 2.0 0.00 0.37 0.00 97 1012.0
20260903100035 51 157 0.0 2.0 0.00 0.37 0.00 97 1012.0
20260903091534 51 180 2.0 4.0 0.00 0.37 0.00 97 1012.0
20260903090111 51 198 1.0 3.0 0.00 0.37 0.00 97 1012.0
20260903084534 52 192 3.0 5.0 0.00 0.37 0.00 97 1012.0
20260903083032 52 180 2.0 4.0 0.00 0.37 0.00 97 1012.0